CAPE
3 2 3 1 1 3 5 0 1 7 28 0 0 0 0 0 0 0 0 1 3 5 7 5 5 6 7 7 5 6 5 5 5 5 3 3 3 2 3 2 2 3 3
4 4 9 24 26 6 0 0 0 8 21 3 0 0 0 0 0 0 0 0 2 3 5 5 5 6 7 5 5 5 5 4 3 3 3 3 3 3 2 1 1 2 1
8 5 5 1 0 7 0 0 0 12 8 0 0 0 0 0 0 0 0 0 0 1 1 3 3 5 4 5 5 5 4 2 2 1 2 2 1 1 1 1 1 1 0
44 31 1 0 0 0 0 0 0 14 0 0 0 0 0 0 0 0 0 0 0 0 0 0 2 5 4 5 5 3 3 2 2 1 1 2 2 1 0 1 0 0 0
28 31 10 0 0 0 0 0 5 21 2 0 0 0 0 0 0 0 0 0 0 0 0 0 0 0 2 3 3 3 3 2 1 1 1 1 1 1 1 0 0 0 0
8 0 17 0 0 0 4 2 30 35 5 1 1 0 0 0 0 0 0 0 0 0 0 0 0 0 1 2 3 3 2 1 1 1 0 0 0 0 0 0 0 0 0
0 0 57 16 68 38 5 14 32 26 1 0 0 0 0 0 0 0 0 0 0 0 0 0 0 0 0 0 2 3 2 2 1 0 0 0 0 0 0 0 0 0 0
12 0 6 137 110 139 69 45 13 2 2 0 0 0 0 0 0 0 0 0 0 0 0 0 0 0 0 0 0 1 2 2 2 1 0 0 0 0 0 0 0 0 0
0 0 0 0 15 50 56 32 2 0 0 0 0 0 0 0 0 0 0 0 0 0 0 0 0 0 0 0 0 0 0 0 1 1 0 0 0 0 0 0 0 0 0
0 0 0 0 26 34 87 27 3 0 0 0 0 0 0 0 0 0 0 0 0 0 0 0 0 0 0 0 0 0 0 0 0 0 0 0 0 0 0 0 0 0 0
0 0 0 10 0 1 89 31 4 0 0 0 0 0 0 0 0 0 0 0 0 0 0 0 0 0 0 0 0 0 0 0 0 0 0 0 0 0 0 0 0 0 0
1 0 0 2 1 4 21 37 3 0 0 0 0 0 0 0 0 0 0 0 0 0 0 0 0 0 0 0 0 0 0 0 0 0 0 0 0 0 0 0 0 0 0
6 0 0 0 1 29 48 19 6 0 0 0 0 0 0 0 0 0 0 0 0 0 0 0 0 0 0 0 0 0 0 0 0 0 0 0 0 0 0 0 0 0 0
40 0 0 0 3 6 17 36 20 0 0 0 0 0 0 0 0 0 0 0 0 0 0 0 0 0 0 0 0 0 0 0 0 0 0 0 0 0 0 0 0 0 0
78 6 0 0 6 16 1 0 25 24 13 0 1 1 0 0 0 0 0 0 0 0 0 0 0 0 0 0 0 0 0 0 0 0 0 0 0 0 0 0 0 0 0
57 32 0 2 1 9 45 11 52 41 30 23 23 33 0 0 0 0 0 0 0 0 0 0 0 0 0 0 0 0 0 0 0 0 0 0 0 0 0 0 0 0 0
48 33 1 0 0 1 7 92 73 36 10 18 28 27 0 0 0 0 0 0 0 0 0 0 0 0 0 0 0 0 0 0 0 0 0 0 0 0 0 0 0 0 0
45 17 11 0 0 0 0 45 47 79 61 50 41 51 0 0 0 0 0 0 0 0 0 0 0 0 0 0 0 0 0 0 0 0 0 0 0 0 0 0 0 0 0
87 9 0 0 0 0 0 7 108 123 110 108 91 72 45 47 59 14 0 0 0 0 0 0 0 0 0 0 0 0 0 0 0 0 0 0 0 0 0 0 0 0 0
300 66 7 0 0 0 0 0 62 124 127 132 117 101 78 18 28 29 0 0 0 0 0 0 0 0 0 0 0 0 0 0 0 0 0 0 0 0 0 0 0 0 0
367 217 62 3 0 0 0 0 0 38 118 124 122 131 127 94 51 64 43 1 0 0 0 0 0 0 0 0 0 0 0 0 0 0 0 0 0 0 0 0 0 0 0
316 308 134 64 33 5 0 0 0 4 12 127 134 128 149 86 44 0 0 0 0 0 0 0 0 0 0 0 0 0 0 0 0 0 0 0 0 0 0 0 0 0 0
70 303 253 81 75 39 10 4 0 0 0 10 52 131 184 168 117 32 0 0 0 0 0 0 0 0 0 0 0 0 0 0 0 0 0 0 0 0 0 0 0 0 0
12 54 130 163 60 67 1 1 0 18 11 0 12 56 93 162 96 55 23 0 0 0 0 0 0 0 0 0 0 0 0 0 0 0 0 0 0 0 0 0 0 0 0
6 13 3 48 44 45 12 1 40 102 111 61 39 28 69 123 84 43 61 29 0 0 0 0 0 0 0 0 0 0 0 0 0 0 0 0 0 0 0 0 0 0 0
2 28 34 46 20 23 1 18 42 82 141 85 59 101 56 88 28 0 137 61 10 0 0 0 0 0 0 0 0 0 0 0 0 0 0 0 0 0 0 0 0 0 0
CIN
-2 -0 -0 -0 -7 -25 -67 -0 -18 -37 -31 -17 -0 -0 -0 -0 -0 -0 -0 -1 -0 -0 -0 -0 -0 -1 -0 -0 -1 -1 -1 -1 -1 -1 -0 -1 -1 -0 -0 -0 -0 -0 -0
-32 -0 -0 -0 -0 -15 -0 -0 -0 -36 -27 -48 -0 -0 -0 -0 -0 -0 -0 -0 -0 -0 -0 -0 -0 -0 -0 -0 -1 -1 -1 -0 -1 -0 -0 -0 -0 -0 -1 -0 -0 -0 -0
-19 -39 -1 -0 -0 -38 -0 -0 -0 -31 -28 -0 -0 -0 -0 -0 -0 -0 -0 -0 -0 -1 -1 -0 -0 -1 -0 -0 -0 -0 -0 -0 -0 -0 -0 -0 -0 -0 -0 -0 -0 -0 -0
-7 -40 -0 -0 -0 -0 -0 -0 -42 -11 -0 -24 -0 -0 -0 -0 -0 -0 -0 -0 -0 -0 -0 -0 -1 -0 -0 -0 -0 -0 -0 -0 -0 -0 -0 -0 -0 -0 -0 -0 -0 -0 -0
-13 -40 -77 -0 -0 -0 -0 -0 -33 -12 -8 -0 -0 -0 -0 -0 -0 -0 -0 -0 -0 -0 -0 -0 -0 -0 -0 -0 -0 -0 -0 -0 -0 -0 -0 -0 -0 -0 -0 -0 -0 -0 -0
-36 -0 -46 -19 -0 -0 -8 -6 -24 -7 -31 -0 -0 -0 -0 -0 -0 -0 -0 -0 -0 -0 -0 -0 -0 -0 -0 -0 -0 -1 -1 -0 -0 -0 -0 -0 -0 -0 -0 -0 -0 -0 -0
-0 -68 -32 -31 -33 -35 -11 -19 -19 -7 -0 -0 -0 -0 -0 -0 -0 -0 -0 -0 -0 -0 -0 -0 -0 -0 -0 -0 -0 -0 -0 -0 -0 -0 -0 -0 -0 -0 -0 -0 -0 -0 -0
-72 -0 -93 -29 -39 -37 -35 -21 -36 -0 -0 -0 -0 -2 -0 -0 -0 -0 -0 -0 -0 -0 -0 -0 -0 -0 -0 -0 -0 -0 -0 -0 -0 -0 -0 -0 -0 -0 -0 -0 -0 -0 -0
-0 -0 -0 -0 -11 -8 -20 -53 -9 -0 -0 -0 -0 -0 -0 -0 -0 -0 -0 -0 -0 -0 -0 -0 -0 -0 -0 -0 -0 -0 -0 -0 -0 -0 -0 -0 -0 -0 -0 -0 -0 -0 -0
-0 -0 -0 -0 -19 -4 -0 -38 -97 -0 -0 -0 -0 -0 -0 -0 -0 -0 -0 -0 -0 -0 -0 -0 -0 -0 -0 -0 -0 -0 -0 -0 -0 -0 -0 -0 -0 -0 -0 -0 -0 -0 -0
-0 -0 -0 -9 -0 -3 -0 -7 -49 -0 -0 -0 -0 -0 -0 -0 -0 -0 -0 -0 -0 -0 -0 -0 -0 -0 -0 -0 -0 -0 -0 -0 -0 -0 -0 -0 -0 -0 -0 -0 -0 -0 -0
-0 -0 -0 -7 -1 -1 -10 -0 -61 -4 -0 -0 -0 -0 -0 -0 -0 -0 -0 -0 -0 -0 -0 -0 -0 -0 -0 -0 -0 -0 -0 -0 -0 -0 -0 -0 -0 -0 -0 -0 -0 -0 -0
-0 -0 -0 -0 -0 -6 -13 -15 -31 -0 -29 -0 -0 -0 -0 -0 -0 -0 -0 -0 -0 -0 -0 -0 -0 -0 -0 -0 -0 -0 -0 -0 -0 -0 -0 -0 -0 -0 -0 -0 -0 -0 -0
-160 -1 -0 -0 -0 -8 -25 -24 -21 -0 -0 -0 -0 -0 -0 -0 -0 -0 -0 -0 -0 -0 -0 -0 -0 -0 -0 -0 -0 -0 -0 -0 -0 -0 -0 -0 -0 -0 -0 -0 -0 -0 -0
-128 -186 -0 -0 -1 -34 -6 -0 -32 -81 -88 -0 -18 -15 -0 -0 -0 -0 -0 -0 -0 -0 -0 -0 -0 -0 -0 -0 -0 -0 -0 -0 -0 -0 -0 -0 -0 -0 -0 -0 -0 -0 -0
-127 -98 -0 -0 -0 -34 -72 -65 -59 -65 -90 -103 -120 -106 -0 -104 -0 -0 -0 -0 -0 -0 -0 -0 -0 -0 -0 -0 -0 -0 -0 -0 -0 -0 -0 -0 -0 -0 -0 -0 -0 -0 -0
-127 -185 -168 -0 -0 -106 -19 -65 -26 -54 -71 -111 -131 -149 -0 -0 -0 -0 -0 -0 -0 -0 -0 -0 -0 -0 -0 -0 -0 -0 -0 -0 -0 -0 -0 -0 -0 -0 -0 -0 -0 -0 -0
-135 -184 -245 -0 -0 -0 -0 -6 -18 -19 -61 -62 -81 -87 -0 -0 -0 -0 -0 -0 -0 -0 -0 -0 -0 -0 -0 -0 -0 -0 -0 -0 -0 -0 -0 -0 -0 -0 -0 -0 -0 -0 -0
-130 -206 -34 -0 -0 -0 -0 -59 -16 -6 -29 -61 -74 -60 -78 -72 -60 -54 -0 -0 -0 -0 -0 -0 -0 -0 -0 -0 -0 -0 -0 -0 -0 -0 -0 -0 -0 -0 -0 -0 -0 -0 -0
-28 -135 -213 -0 -0 -0 -0 -0 -34 -2 -28 -56 -87 -63 -82 -54 -79 -102 -0 -9 -0 -0 -0 -0 -0 -0 -0 -0 -0 -0 -0 -0 -0 -0 -0 -0 -0 -0 -0 -0 -0 -0 -0
-2 -50 -102 -168 -0 -0 -0 -0 -0 -12 -17 -34 -61 -63 -58 -78 -88 -92 -80 -8 -0 -0 -0 -0 -0 -0 -0 -0 -0 -0 -0 -0 -0 -0 -0 -0 -0 -0 -0 -0 -0 -0 -0
-5 -2 -33 -86 -127 -173 -2 -0 -0 -90 -79 -50 -38 -61 -52 -77 -90 -0 -0 -0 -0 -0 -0 -0 -0 -0 -0 -0 -0 -0 -0 -0 -0 -0 -0 -0 -0 -0 -0 -0 -0 -0 -0
-43 -0 -9 -22 -86 -105 -199 -167 -0 -0 -0 -109 -98 -72 -39 -56 -90 -90 -0 -0 -0 -0 -0 -0 -0 -0 -0 -0 -0 -0 -0 -0 -0 -0 -0 -0 -0 -0 -0 -0 -0 -0 -0
-58 -46 -3 -9 -14 -55 -89 -77 -0 -47 -71 -0 -129 -134 -142 -121 -133 -108 -107 -0 -0 -0 -0 -0 -0 -0 -0 -0 -0 -0 -0 -0 -0 -0 -0 -0 -0 -0 -0 -0 -0 -0 -0
-114 -103 -4 -4 -5 -3 -118 -76 -105 -56 -18 -43 -95 -123 -125 -113 -180 -190 -119 -113 -0 -0 -0 -0 -0 -0 -0 -0 -0 -0 -0 -0 -0 -0 -0 -0 -0 -0 -0 -0 -0 -0 -0
-0 -76 -71 -11 -25 -16 -43 -138 -117 -58 -15 -7 -33 -49 -95 -91 -158 -0 -47 -79 -100 -0 -0 -0 -0 -0 -0 -0 -0 -0 -0 -0 -0 -0 -0 -0 -0 -0 -0 -0 -0 -0 -0
Wind_Speed
16 18 18 22 26 21 16 15 17 14 10 7 6 5 3 2 3 5 5 6 8 10 12 14 16 18 20 21 22 22 22 23 23 23 22 22 22 22 22 23 23 23 24
19 18 18 17 17 20 18 17 18 15 12 10 7 5 3 3 4 5 4 4 6 9 12 14 17 20 21 22 22 22 22 22 22 22 21 21 21 21 21 22 22 22 22
18 18 18 17 15 17 18 19 17 16 12 11 8 7 4 3 4 4 5 4 4 5 9 15 19 20 20 20 20 20 20 20 20 20 20 19 19 19 19 20 21 21 21
14 16 18 19 18 17 19 20 18 14 13 12 9 8 5 4 6 5 6 5 5 4 6 13 17 18 19 19 19 19 19 19 19 19 19 18 18 18 18 18 19 19 19
15 15 19 21 21 20 21 23 19 15 15 14 10 9 7 7 8 9 7 8 6 3 7 13 16 17 18 18 17 17 17 17 17 17 17 17 17 16 16 16 17 17 17
13 17 22 23 23 21 22 22 20 17 16 14 10 10 12 12 13 13 11 11 7 3 8 12 14 15 16 15 15 15 15 15 15 15 15 15 15 15 15 14 14 15 15
13 14 24 24 25 24 23 21 19 17 18 13 11 10 14 16 17 19 16 15 13 3 7 10 12 12 12 13 12 13 13 13 13 13 13 13 13 13 13 12 12 13 13
18 11 24 28 29 29 25 22 20 18 20 14 16 15 18 20 23 21 18 18 13 9 3 8 8 10 11 10 10 11 11 10 10 11 11 11 11 11 10 10 10 10 11
16 14 23 33 36 32 29 24 22 21 19 19 15 17 18 21 20 24 23 22 19 9 4 2 6 8 9 8 8 8 9 8 8 9 9 9 9 9 8 8 8 9 9
18 18 15 29 42 38 31 29 24 23 20 19 20 23 21 17 20 20 25 25 21 15 7 2 1 4 5 6 6 7 7 6 6 7 7 7 7 6 6 6 6 7 7
19 19 20 18 24 39 33 31 27 27 24 21 22 24 25 22 21 19 20 19 22 19 12 4 2 1 2 3 4 4 5 4 4 5 5 5 5 5 5 5 4 5 5
21 23 22 18 21 28 33 32 31 28 30 27 26 27 25 22 22 19 18 18 17 20 15 10 4 2 2 2 3 4 4 3 3 3 4 5 4 4 3 3 3 3 4
24 25 26 23 17 17 17 30 31 31 30 30 26 28 30 29 23 20 18 17 18 18 17 14 9 5 3 2 2 3 4 3 2 1 2 5 4 4 4 3 1 1 1
24 23 24 23 21 18 20 18 31 34 34 33 26 29 31 32 27 20 20 17 18 17 17 16 12 7 5 4 3 4 2 3 2 1 1 4 4 5 5 3 2 2 1
21 24 25 23 22 21 20 20 29 31 32 31 33 30 31 31 29 25 23 20 18 18 16 18 14 6 5 4 4 3 3 3 3 2 2 3 4 4 4 4 4 3 3
25 24 26 26 24 23 22 23 22 21 22 27 32 30 35 33 29 27 25 22 20 20 20 13 10 13 6 7 6 5 5 4 5 5 4 4 5 6 5 4 5 4 4
25 24 26 28 27 27 24 23 24 22 24 25 29 30 33 29 29 28 26 24 21 19 21 21 16 12 11 8 9 7 7 7 6 6 7 6 7 6 6 6 5 4 4
31 26 26 30 27 29 29 26 28 24 26 25 30 30 29 29 29 28 26 24 22 19 20 19 19 15 13 12 10 9 9 9 9 8 8 8 8 8 8 7 6 6 6
34 31 28 31 30 30 32 31 28 28 27 29 30 29 28 26 28 27 27 26 25 22 20 22 21 19 16 17 16 14 12 13 10 9 9 9 10 9 9 9 8 7 7
36 35 33 28 34 32 33 33 32 30 30 31 33 32 29 28 27 26 26 26 26 25 23 21 22 21 20 19 17 17 17 15 14 13 12 11 12 12 11 10 9 9 8
45 40 39 34 31 36 36 35 34 34 32 33 34 34 33 30 28 27 26 26 25 25 25 23 22 22 21 21 17 19 19 18 17 16 17 16 15 15 14 11 10 9 8
49 45 45 43 36 37 39 36 35 35 33 33 33 31 35 30 30 29 28 26 25 25 25 24 23 24 21 20 20 20 20 21 26 19 20 19 15 18 15 11 10 10 8
45 49 49 46 44 38 38 36 36 37 37 36 34 32 32 32 30 31 30 29 27 26 26 25 26 24 24 21 21 21 21 20 23 22 19 20 18 17 14 12 10 8 9
41 46 51 47 51 43 38 36 35 35 37 37 36 35 33 33 33 32 33 34 32 29 27 26 26 24 23 22 21 22 22 23 25 23 20 24 19 16 16 13 11 10 9
46 46 46 39 50 48 40 38 36 38 38 38 36 35 34 32 32 30 34 35 34 33 28 27 28 26 24 23 22 23 24 25 28 29 23 22 20 18 16 15 12 10 8
38 35 47 43 49 50 44 39 37 37 37 37 36 35 34 34 32 30 30 31 33 30 27 28 28 28 25 24 22 24 23 24 24 24 20 18 17 16 18 17 15 12 10
Wind_Direction
223 227 220 217 217 216 200 192 203 211 204 193 210 219 243 310 337 294 306 34 45 61 67 72 75 80 84 84 85 85 82 80 80 76 71 67 65 63 60 60 62 63 63
228 220 215 210 210 211 201 183 200 209 205 210 215 220 245 298 296 290 318 354 38 58 70 78 86 94 97 97 95 92 89 84 81 76 74 71 68 65 64 65 65 65 65
218 210 209 209 196 190 187 194 199 212 203 218 222 228 250 273 282 302 313 305 351 45 64 87 100 102 100 101 98 94 91 85 81 75 69 67 71 70 68 67 68 67 64
196 207 211 208 203 194 195 201 204 207 210 217 218 234 248 263 266 283 289 289 283 293 49 87 99 107 109 108 106 103 99 91 86 81 74 71 73 72 71 70 70 68 65
204 208 216 214 209 205 206 210 212 210 214 222 225 235 247 257 260 265 276 274 281 357 61 96 107 111 116 113 109 102 99 95 91 84 80 76 74 73 74 72 67 65 63
205 209 225 217 214 211 212 212 215 220 218 218 222 238 249 251 255 259 265 263 279 348 86 100 111 117 120 114 110 106 102 97 90 87 83 80 79 78 79 76 68 61 63
235 225 227 220 219 216 215 212 214 215 224 216 219 243 253 254 253 253 260 258 264 318 95 104 111 114 114 116 111 110 107 100 93 87 83 79 79 82 80 77 70 65 62
234 218 229 227 222 222 217 214 211 218 232 211 230 244 249 254 251 253 258 257 268 278 91 112 102 114 116 114 109 111 107 100 91 83 79 83 83 72 72 69 64 62 62
211 209 238 229 229 229 227 216 214 220 220 228 220 253 252 257 256 253 254 254 259 275 287 101 115 115 121 115 107 113 111 101 94 84 78 83 87 81 72 78 70 63 60
199 217 201 222 229 231 234 228 222 224 219 224 234 247 254 263 258 262 256 255 261 270 277 274 128 119 123 118 116 118 117 103 90 86 77 74 76 79 74 69 69 61 54
205 197 196 203 210 235 237 231 227 229 232 227 234 240 251 258 260 263 264 260 261 267 278 267 246 190 138 130 129 125 131 111 97 79 65 67 71 66 62 59 60 52 45
218 197 207 197 228 236 237 231 231 232 234 235 239 242 246 254 255 260 268 264 265 270 274 282 274 245 212 175 157 154 152 138 122 86 55 49 63 48 45 46 43 51 38
224 200 195 214 211 211 198 229 230 237 233 235 236 243 244 248 256 259 268 273 270 272 281 279 282 267 253 253 192 175 174 167 155 110 42 21 22 15 10 8 34 52 43
218 211 209 211 217 218 216 212 237 236 233 236 238 244 245 246 249 258 264 271 276 278 281 291 285 268 260 233 222 199 229 197 197 197 351 357 355 348 346 341 331 337 346
212 213 216 213 222 223 209 202 235 234 236 237 240 244 246 247 250 257 261 267 272 276 278 287 297 271 251 263 250 249 274 244 224 237 275 324 338 328 325 318 320 317 324
231 220 222 222 218 224 215 206 210 213 215 232 241 244 246 249 252 256 260 263 266 275 283 285 290 305 289 286 285 268 271 278 247 247 260 294 320 319 315 305 304 292 299
233 223 223 225 223 218 224 218 216 216 213 233 243 245 248 251 252 255 256 260 263 271 278 289 295 296 299 293 298 284 287 286 292 264 280 275 305 301 300 296 284 257 260
240 230 222 233 223 224 217 221 226 224 214 227 241 246 247 250 251 255 253 258 262 265 275 283 292 295 295 297 295 295 293 297 295 286 273 284 296 297 299 289 283 269 255
245 240 233 232 231 223 218 226 222 225 225 234 240 242 246 247 250 254 255 258 263 267 270 282 287 296 295 300 303 303 298 301 297 294 286 276 287 295 293 290 280 275 254
246 244 236 224 235 232 229 230 231 230 230 237 242 245 245 245 247 250 253 255 261 265 269 274 282 289 295 299 298 298 299 298 297 304 300 300 300 296 293 293 284 287 272
246 246 242 237 228 236 237 234 234 236 236 239 243 245 248 247 246 248 252 255 258 261 268 269 274 283 287 294 288 297 295 298 297 298 300 303 306 306 302 292 289 287 286
249 246 245 243 237 239 240 235 236 236 237 237 241 242 249 244 246 247 248 252 251 254 261 267 270 275 277 281 291 289 293 297 299 296 297 299 303 303 302 298 289 290 295
251 248 249 244 242 236 236 234 233 240 242 241 242 242 245 249 247 251 252 253 252 249 256 261 269 272 279 278 285 288 287 291 293 306 298 295 304 298 299 299 293 290 298
261 254 251 249 243 236 233 231 231 235 243 244 244 244 245 247 249 251 255 258 260 259 258 263 266 271 274 281 277 283 284 290 297 297 298 296 307 298 306 301 302 300 301
261 259 261 257 245 238 235 234 233 239 243 246 246 247 247 247 249 244 253 257 260 263 266 268 274 277 277 279 282 288 288 287 289 289 288 289 297 299 305 307 314 315 315
269 264 258 266 256 253 241 235 230 237 240 244 247 247 245 248 250 247 248 254 260 261 263 269 273 279 281 281 280 283 285 285 288 293 290 272 292 295 307 308 308 310 314